Showing default

BEIDOU 3M22, 44794

Orbit data source: Space-Track

BEIDOU 3M22, 44794 is a payload satellite owned by CNSA (CN) in MEO that was launched on Sat, 23 Nov 2019 UTC via a CHANG ZHENG 3B/YZ-1 launch vehicle from the Xichang Space Center, China (XSC). Payload-class satellites include a variety of spacecraft equipped with specific instruments for various scientific and technological missions. These include communications satellites like Starlink; space stations such as the ISS; scientific satellites like the Hubble; Earth observation satellites from companies like Planet Labs, Umbra, and HawkEye 360; GPS; miniature CubeSats for education and research; and military/defense satellites.

Loading next visibility...
Identifier
44794, 2019-078B
Orbit
MEO
Last TLE update
1 day ago
Origin
Manufacturer
SECM
Mission
Operational Defense Navigation
Bus & Motor
BD-3M2, Unknown motor
Mass
1,014 kg wet, ~850 kg dry
Launch date (UTC)
2019-11-23 (6 years ago)
Launch vehicle
CHANG ZHENG 3B/YZ-1
Launch site
Xichang Space Center, China (XSC)
Object type
Payload
Rocket body
Debris
Shape & HBR
Box + 2 Pan, Unknown HBR
Radar Cross Section
8.984 m², Large (>1 m²)

Expand to show TLE details & history

TLE from 1 day ago
0 BEIDOU 3M22
1 44794U 19078B   25185.27152150 -.00000106  00000-0  00000-0 0  9995
2 44794  54.2244 312.0145 0003543  39.6019 320.4242  1.86227959 38175
Epoch: 2025-07-04T06:30Z
TLE epoch observation values (Epoch: 2025-07-04T06:30:59.457Z)
Latitude
-0.00001°
Longitude
-68.27639°
Altitude
21,521.001 km
Speed
3.78 km/s
True Right ascension
20h 47m 59s
True Declination
0° 00' 00"
Sunlit
Object was in daylight at epoch
Visualization orbit readout
Latitude
-54.27482°
Longitude
-158.0773°
Altitude
21,554.511 km
Speed
3.778 km/s
Apparent Right ascension
15h 29m 22s
Apparent Declination
-53° 08' 55"
Sunlit
Object is in daylight
Visualization observer readout
Local Sidereal Time
05:53:05
Azimuth
130.646° SE
Elevation
-62.367°
Doppler factor
1
Orbital elements
Apogee altitude
21,538.28 km
Perigee altitude
21,518.505 km
Semi-major axis
27,906.529 km
Eccentricity
0.00035
Inclination
54.2244°
RAAN
312.0145°
Arg. of periapsis
39.6019°
True anomaly
Unknown
Mean anomaly
320.4242°
Eccentric anomaly
Unknown
Mean motion
0.46557 °/min
Orbital period
773.25 mins
BSTAR
0
Loading maneuver chart data...
Loading SW <> Apogee altitude chart data...
Loading historical data...
Loading historical data...
Loading historical data...
Loading historical data...
Loading historical data...
Loading historical data...
Loading historical data...
Other satellites on launch #78 in the year 2019 (2019-11-23 UTC)

BEIDOU 3M22 Visibility forecast

Observer location: undefined°, undefined°

Span
Click to sort rows by Start time (UTC) header in descending order
Start Az.
Max El. time (UTC)
Max El. Az.
Max El.
End time (UTC)
End Az.
436 mins2025-07-06 08:59:37.843Z200.965° SSW2025-07-06 12:08:37.843Z308.727° NW44.723°2025-07-06 16:15:37.843Z102.788° ESE
|